Aérodrome :







RETROUVEZ-NOUS SUR...

 
LOGIN :

S'inscrire | Disclaimer

   EN    FR    IT 

 









Légende :    VFR   VFR Marginal   IFR   IFR Intensif   IFR Très Intensif
Visi : 
Plafond : 
>= 8 km
>= 3000ft
5 à 8 km
1000 à 3000 ft
1500m à 5 km
500 à 1000 ft
800 à 1500m
200 à 500 ft
< 800m
< 200 ft
Symboles :   Orages  Brouillard  Fortes neiges  Fortes précipitations  Vent > 20 kt






- Altitude de l'aérodrome : 30 ft
- Code IATA : AZS


MDCY - El Catey Int.

DERNIER METAR :
  • 251600Z 09010KT 9999 SCT020 SCT300 31/26 Q1016

METARs EXPIRÉS :
  • 251500Z 09010KT 9999 SCT020 SCT300 30/25 Q1016
  • 251400Z 09004KT 9999 FEW020 29/25 Q1016

TAF TAF MDCY
Valide du 25 à 12h jusqu'au 26 à 12h UTC


251000Z 2512/2612 09008KT 9999 FEW018 SCT300
PROB30 2515/2521 7000 -TSRA FEW014CB BKN016 SCT070
FIR MDCS / Amérique du Nord



MET'MAP, la Météo Aéronautique d'un coup d'oeil ! - Copyright ORBIFLY Décembre 2007 - Disclaimer

ORBIFLY MET'MAP TEAM :

Programmation & Développement : Alexandra Zaïnal
Sur une idée originale de : Baudouin d'Aumeries
Assistance à la programmation : Marc-Olivier Méhu
Soutien technique & logistique : Manuel Goepfert

Contact : metmap@orbifly.com




SOURCES & CREDITS :

   NOAA